When you browse on this site, cookies collect data to enhance your experience and personalize the content and advertising you see.
Visit our Privacy Policy to learn more. By continuing to use the site, you agree to this use of cookies and data.
EN

Hourly Weather Byala

Today, 6 July, Monday

Time Temperature Precipitation Wind Pressure Humidity
00:00 +24°C° 0 mm 3 mps 747 mmHg 84%
01:00 +22°C° 0 mm 4 mps 747 mmHg 84%
02:00 +22°C° 0 mm 5 mps 747 mmHg 80%
03:00 +21°C° 0 mm 5 mps 746 mmHg 82%
04:00 +21°C° 0 mm 5 mps 746 mmHg 84%
05:00 +21°C° 0 mm 5 mps 746 mmHg 87%
06:00 +22°C° 0.1 mm 5 mps 746 mmHg 82%
07:00 +25°C° 0.1 mm 5 mps 746 mmHg 78%
08:00 +26°C° 0.1 mm 6 mps 746 mmHg 74%
09:00 +28°C° 0.1 mm 5 mps 746 mmHg 68%
10:00 +30°C° 0.1 mm 5 mps 745 mmHg 62%
11:00 +32°C° 0.1 mm 5 mps 745 mmHg 56%
12:00 +33°C° 0.1 mm 5 mps 745 mmHg 57%
13:00 +33°C° 0.1 mm 5 mps 745 mmHg 58%
14:00 +33°C° 0.1 mm 6 mps 744 mmHg 59%
15:00 +32°C° 0 mm 5 mps 744 mmHg 60%
16:00 +32°C° 0 mm 4 mps 744 mmHg 62%
17:00 +32°C° 0 mm 4 mps 743 mmHg 63%
18:00 +29°C° 0 mm 3 mps 743 mmHg 71%
19:00 +27°C° 0 mm 2 mps 743 mmHg 79%
20:00 +25°C° 0 mm 1 mps 743 mmHg 87%
21:00 +25°C° 0 mm 1 mps 743 mmHg 87%
22:00 +24°C° 0 mm 1 mps 743 mmHg 88%
23:00 +24°C° 0 mm 2 mps 743 mmHg 88%

Tomorrow, 7 July, Tuesday

Time Temperature Precipitation Wind Pressure Humidity
00:00 +23°C° 0 mm 2 mps 743 mmHg 88%
01:00 +23°C° 0 mm 2 mps 743 mmHg 88%
02:00 +22°C° 0 mm 3 mps 742 mmHg 89%
03:00 +21°C° 0 mm 3 mps 742 mmHg 89%
04:00 +21°C° 0 mm 3 mps 742 mmHg 90%
05:00 +21°C° 0 mm 3 mps 742 mmHg 91%
06:00 +24°C° 0 mm 3 mps 743 mmHg 84%
07:00 +25°C° 0 mm 3 mps 743 mmHg 76%
08:00 +27°C° 0 mm 3 mps 743 mmHg 69%
09:00 +29°C° 0 mm 3 mps 743 mmHg 63%
10:00 +31°C° 0 mm 3 mps 743 mmHg 57%
11:00 +33°C° 0 mm 3 mps 743 mmHg 51%
12:00 +33°C° 0.1 mm 3 mps 744 mmHg 50%
13:00 +33°C° 0.1 mm 4 mps 744 mmHg 49%
14:00 +34°C° 0.1 mm 4 mps 744 mmHg 48%
15:00 +33°C° 0 mm 5 mps 744 mmHg 51%
16:00 +32°C° 0 mm 6 mps 744 mmHg 54%
17:00 +30°C° 0 mm 6 mps 744 mmHg 57%
18:00 +28°C° 0 mm 7 mps 745 mmHg 62%
19:00 +26°C° 0 mm 8 mps 746 mmHg 67%
20:00 +23°C° 0 mm 8 mps 746 mmHg 71%
21:00 +22°C° 0 mm 8 mps 747 mmHg 73%
22:00 +20°C° 0 mm 8 mps 748 mmHg 75%
23:00 +18°C° 0 mm 8 mps 748 mmHg 77%

Day after tomorrow, 8 July, Wednesday

Time Temperature Precipitation Wind Pressure Humidity
00:00 +17°C° 0 mm 8 mps 749 mmHg 78%
01:00 +16°C° 0 mm 8 mps 749 mmHg 78%
02:00 +16°C° 0 mm 7 mps 750 mmHg 78%
03:00 +16°C° 0 mm 7 mps 750 mmHg 75%
04:00 +16°C° 0 mm 7 mps 750 mmHg 72%
05:00 +15°C° 0 mm 7 mps 751 mmHg 70%
06:00 +16°C° 0 mm 7 mps 751 mmHg 67%
07:00 +17°C° 0 mm 7 mps 752 mmHg 65%
08:00 +17°C° 0 mm 8 mps 752 mmHg 62%
09:00 +20°C° 0 mm 7 mps 752 mmHg 57%
10:00 +22°C° 0 mm 7 mps 752 mmHg 52%
11:00 +24°C° 0 mm 7 mps 753 mmHg 46%
12:00 +24°C° 0 mm 6 mps 753 mmHg 45%
13:00 +26°C° 0 mm 6 mps 753 mmHg 43%
14:00 +27°C° 0 mm 5 mps 753 mmHg 41%
15:00 +26°C° 0 mm 5 mps 753 mmHg 42%
16:00 +26°C° 0 mm 5 mps 753 mmHg 42%
17:00 +26°C° 0 mm 4 mps 752 mmHg 42%
18:00 +24°C° 0 mm 3 mps 753 mmHg 48%
19:00 +21°C° 0 mm 3 mps 753 mmHg 53%
20:00 +19°C° 0 mm 2 mps 753 mmHg 59%
21:00 +19°C° 0 mm 2 mps 753 mmHg 60%
22:00 +18°C° 0 mm 2 mps 753 mmHg 62%
23:00 +17°C° 0 mm 2 mps 753 mmHg 64%

9 July, Thursday

Time Temperature Precipitation Wind Pressure Humidity
00:00 +17°C° 0 mm 2 mps 753 mmHg 65%
01:00 +17°C° 0 mm 2 mps 753 mmHg 67%
02:00 +17°C° 0 mm 3 mps 754 mmHg 68%
03:00 +17°C° 0 mm 3 mps 754 mmHg 71%
04:00 +16°C° 0 mm 3 mps 754 mmHg 73%
05:00 +16°C° 0 mm 3 mps 754 mmHg 76%
06:00 +18°C° 0 mm 3 mps 754 mmHg 68%
07:00 +21°C° 0 mm 2 mps 754 mmHg 60%
08:00 +24°C° 0 mm 2 mps 754 mmHg 51%
09:00 +25°C° 0 mm 2 mps 754 mmHg 47%
10:00 +27°C° 0 mm 3 mps 754 mmHg 43%
11:00 +28°C° 0 mm 3 mps 754 mmHg 38%
12:00 +28°C° 0 mm 3 mps 754 mmHg 38%
13:00 +29°C° 0 mm 3 mps 754 mmHg 38%
14:00 +29°C° 0 mm 4 mps 754 mmHg 37%
15:00 +28°C° 0 mm 4 mps 754 mmHg 41%
16:00 +28°C° 0 mm 4 mps 753 mmHg 44%
17:00 +27°C° 0 mm 4 mps 753 mmHg 48%
18:00 +26°C° 0 mm 4 mps 753 mmHg 55%
19:00 +24°C° 0 mm 3 mps 754 mmHg 62%
20:00 +21°C° 0 mm 3 mps 754 mmHg 70%
21:00 +20°C° 0 mm 2 mps 754 mmHg 72%
22:00 +20°C° 0 mm 2 mps 754 mmHg 75%
23:00 +19°C° 0 mm 2 mps 754 mmHg 77%

10 July, Friday

Time Temperature Precipitation Wind Pressure Humidity
00:00 +19°C° 0 mm 2 mps 754 mmHg 78%
01:00 +19°C° 0 mm 2 mps 754 mmHg 79%
02:00 +19°C° 0 mm 2 mps 754 mmHg 80%
03:00 +18°C° 0 mm 3 mps 754 mmHg 81%
04:00 +18°C° 0 mm 3 mps 754 mmHg 82%
05:00 +18°C° 0 mm 4 mps 754 mmHg 83%
06:00 +20°C° 0 mm 4 mps 754 mmHg 75%
07:00 +22°C° 0 mm 5 mps 754 mmHg 67%
08:00 +26°C° 0 mm 6 mps 754 mmHg 59%
09:00 +26°C° 0 mm 6 mps 754 mmHg 55%
10:00 +27°C° 0 mm 6 mps 754 mmHg 51%
11:00 +28°C° 0 mm 6 mps 754 mmHg 47%
12:00 +29°C° 0 mm 7 mps 754 mmHg 49%
13:00 +29°C° 0 mm 7 mps 754 mmHg 50%
14:00 +29°C° 0 mm 7 mps 754 mmHg 51%
15:00 +28°C° 0 mm 7 mps 754 mmHg 52%
16:00 +28°C° 0 mm 7 mps 754 mmHg 52%
17:00 +28°C° 0 mm 7 mps 753 mmHg 53%
18:00 +26°C° 0 mm 7 mps 753 mmHg 59%
19:00 +24°C° 0 mm 6 mps 753 mmHg 65%
20:00 +22°C° 0 mm 6 mps 753 mmHg 72%
21:00 +22°C° 0 mm 6 mps 754 mmHg 74%
22:00 +21°C° 0 mm 5 mps 754 mmHg 76%
23:00 +21°C° 0 mm 5 mps 754 mmHg 78%

11 July, Saturday

Time Temperature Precipitation Wind Pressure Humidity
00:00 +21°C° 0 mm 5 mps 753 mmHg 80%
01:00 +20°C° 0 mm 5 mps 753 mmHg 82%
02:00 +20°C° 0 mm 4 mps 753 mmHg 84%
03:00 +20°C° 0 mm 4 mps 753 mmHg 85%
04:00 +19°C° 0 mm 4 mps 752 mmHg 87%
05:00 +19°C° 0 mm 4 mps 752 mmHg 88%
06:00 +21°C° 0 mm 5 mps 752 mmHg 80%
07:00 +23°C° 0 mm 5 mps 752 mmHg 72%
08:00 +26°C° 0 mm 6 mps 752 mmHg 63%
09:00 +27°C° 0 mm 6 mps 752 mmHg 58%
10:00 +28°C° 0 mm 6 mps 752 mmHg 53%
11:00 +29°C° 0 mm 7 mps 752 mmHg 47%
12:00 +29°C° 0 mm 7 mps 752 mmHg 46%
13:00 +29°C° 0 mm 7 mps 752 mmHg 46%
14:00 +30°C° 0 mm 7 mps 752 mmHg 45%
15:00 +29°C° 0 mm 6 mps 751 mmHg 50%
16:00 +28°C° 0 mm 6 mps 751 mmHg 54%
17:00 +28°C° 0 mm 6 mps 751 mmHg 59%
18:00 +26°C° 0 mm 6 mps 751 mmHg 67%
19:00 +25°C° 0 mm 5 mps 751 mmHg 74%
20:00 +22°C° 0 mm 5 mps 751 mmHg 82%
21:00 +21°C° 0 mm 4 mps 750 mmHg 84%
22:00 +21°C° 0 mm 4 mps 750 mmHg 86%
23:00 +20°C° 0 mm 3 mps 750 mmHg 88%
Show more